Location: Caltech
(34.1382°N, 118.1253°W)
Time: 00:24:58
(UTC-07:00)

Cosmos 1939 Rocket - Visible Passes

Search period start: 26 April 2018 00:00
Search period end: 06 May 2018 00:00
Orbit: 534 x 584 km, 97.5° (Epoch: 25 April)

Date Brightness Start Highest point End Pass type
(mag) Time Alt. Az. Time Alt. Az. Time Alt. Az.
26 Apr 4.4 21:17:24 13° SSW 21:20:24 32° W 21:23:58 10° NNW visible
27 Apr 4.3 21:15:54 13° SSW 21:19:00 34° W 21:22:36 10° NNW visible
28 Apr 4.2 21:14:23 12° SSW 21:17:35 35° W 21:21:13 10° NNW visible
29 Apr 4.2 21:12:54 12° SSW 21:16:10 37° W 21:19:50 10° NNW visible
30 Apr 4.1 21:11:23 12° SSW 21:14:45 38° W 21:18:28 10° NNW visible
01 May 4.0 21:09:53 11° SSW 21:13:20 40° W 21:17:05 10° NNW visible
02 May 3.9 21:08:23 11° S 21:11:55 42° W 21:15:42 10° NNW visible
03 May 3.9 21:06:53 11° S 21:10:30 44° W 21:14:20 10° NNW visible
04 May 3.8 21:05:23 10° S 21:09:06 46° W 21:12:56 10° NNW visible
05 May 3.7 21:03:53 10° S 21:07:41 48° W 21:11:33 10° NNW visible
